period_start,C,m1,H,J0,J1,J2,J3,J4,J5,JA,JB,JC,JD,JJ,JK,JN,#
2018-09-05 00:01:14,0.02,0.24,0.00,17.98,21.65,24.90,14.07,48.43,1003.92,2050.00,3324.04,3056.52,3503.99,600.12,598.83,23.37,0000 0000 0000 0000 000000
2018-09-05 00:06:16,0.01,0.24,0.00,17.98,21.65,24.88,14.09,48.36,1003.90,2050.00,3324.00,3056.05,3503.94,600.12,598.85,23.42,0000 0000 0000 0000 000000
2018-09-05 00:11:17,0.01,0.24,0.00,17.98,21.64,24.85,14.09,48.65,1003.84,2050.00,3323.92,3055.94,3503.54,600.17,598.86,23.47,0000 0000 0000 0000 000000
2018-09-05 00:16:19,0.12,0.25,0.00,17.99,21.64,24.89,14.01,48.52,1003.79,2050.00,3322.31,3054.18,3501.24,599.97,598.44,23.52,0000 0000 0000 0000 000000
2018-09-05 00:21:20,0.04,0.25,0.00,17.98,21.64,24.87,14.04,48.48,1003.52,2050.00,3321.62,3053.04,3500.03,600.41,598.87,23.57,0000 0000 0000 0000 000000
2018-09-05 00:26:21,0.04,0.25,0.00,17.98,21.64,24.86,14.04,48.42,1003.50,2050.00,3321.02,3052.56,3499.28,599.96,598.40,23.62,0000 0000 0000 0000 000000
2018-09-05 00:31:22,0.01,0.25,0.00,17.99,21.64,24.86,14.00,48.45,1003.44,2050.00,3320.93,3052.10,3499.02,599.96,598.43,23.67,0000 0000 0000 0000 000000
2018-09-05 00:36:23,0.01,0.25,0.00,18.00,21.64,24.81,14.02,48.39,1003.43,2050.00,3320.52,3052.02,3499.00,600.05,598.47,23.72,0000 0000 0000 0000 000000
2018-09-05 00:41:24,0.00,0.25,0.00,18.02,21.64,24.79,14.07,48.48,1003.44,2050.00,3320.07,3052.00,3498.99,599.96,598.43,23.77,0000 0000 0000 0000 000000
2018-09-05 00:46:25,0.00,0.25,0.00,18.02,21.64,24.81,14.00,48.48,1003.44,2050.00,3320.01,3052.00,3498.91,599.88,598.28,23.82,0000 0000 0000 0000 000000
2018-09-05 00:51:27,0.01,0.26,0.00,18.03,21.64,24.82,13.96,48.48,1003.45,2050.00,3320.00,3052.00,3498.25,599.94,598.30,23.87,0000 0000 0000 0000 000000
2018-09-05 00:56:28,0.00,0.26,0.00,18.04,21.64,24.83,14.15,48.48,1003.46,2050.00,3319.98,3051.96,3498.02,599.84,598.15,23.92,0000 0000 0000 0000 000000
2018-09-05 01:01:29,0.01,0.26,0.00,18.04,21.64,24.84,14.03,48.51,1003.45,2050.00,3319.81,3051.82,3498.00,599.85,598.19,23.97,0000 0000 0000 0000 000000
2018-09-05 01:06:30,0.03,0.26,0.00,18.05,21.64,24.81,14.11,48.51,1003.43,2050.00,3319.18,3051.23,3497.97,600.22,598.55,24.02,0000 0000 0000 0000 000000
2018-09-05 01:11:31,0.01,0.26,0.00,18.07,21.64,24.85,14.08,48.63,1003.39,2050.00,3319.00,3051.02,3497.48,600.29,598.55,24.07,0000 0000 0000 0000 000000
2018-09-05 01:16:33,0.00,0.26,0.00,18.09,21.64,24.82,14.05,48.48,1003.14,2050.00,3318.95,3051.00,3497.03,600.01,598.06,24.12,0000 0000 0000 0000 000000
2018-09-05 01:21:34,0.01,0.26,0.00,18.09,21.64,24.84,13.93,48.58,1002.95,2050.00,3318.39,3050.95,3496.99,599.71,597.69,24.17,0000 0000 0000 0000 000000
2018-09-05 01:26:35,0.04,0.26,0.00,18.11,21.66,24.83,13.98,48.58,1002.73,2050.00,3317.95,3050.20,3496.26,599.94,597.66,24.22,0000 0000 0000 0000 000000
2018-09-05 01:31:36,0.21,0.26,0.00,18.12,21.67,24.85,14.00,48.71,1002.39,2050.00,3315.96,3047.47,3493.37,599.93,597.47,24.27,0000 0000 0000 0000 000000
2018-09-05 01:36:37,0.90,0.31,0.00,18.14,21.67,24.83,14.06,48.69,1001.99,2049.99,3305.27,3031.87,3476.96,600.27,597.47,24.32,0000 0000 0000 0000 000000
2018-09-05 01:41:39,0.23,0.33,0.00,18.16,21.67,24.82,14.04,48.81,1001.87,2049.98,3301.11,3025.92,3470.70,599.89,597.01,24.37,0000 0000 0000 0000 000000
2018-09-05 01:46:40,0.15,0.33,0.00,18.18,21.68,24.84,14.00,48.73,1001.54,2049.99,3298.72,3022.77,3467.16,599.77,596.70,24.42,0000 0000 0000 0000 000000
2018-09-05 01:51:42,0.30,0.35,0.00,18.21,21.69,24.85,14.05,48.66,1001.48,2049.98,3295.30,3017.96,3462.27,600.22,596.98,24.47,0000 0000 0000 0000 000000
2018-09-05 01:56:43,0.23,0.36,0.00,18.23,21.69,24.84,14.03,48.72,1001.46,2049.98,3291.68,3013.06,3456.97,600.04,596.95,24.52,0000 0000 0000 0000 000000
2018-09-05 02:01:44,0.05,0.36,0.00,18.26,21.70,24.82,14.00,48.92,1001.41,2049.97,3290.71,3011.75,3455.70,600.11,596.78,24.57,0000 0000 0000 0000 000000
2018-09-05 02:06:46,0.11,0.37,0.00,18.29,21.71,24.86,14.01,48.75,1001.43,2049.97,3289.28,3010.13,3453.93,600.11,596.72,24.62,0000 0000 0000 0000 000000
2018-09-05 02:11:47,0.06,0.38,0.00,18.33,21.72,24.84,13.97,48.67,1001.46,2049.96,3288.02,3008.15,3452.00,600.30,596.72,24.67,0000 0000 0000 0000 000000
2018-09-05 02:16:49,0.33,0.38,0.00,18.36,21.73,24.83,13.96,48.76,1001.47,2049.96,3285.12,3004.44,3447.57,599.91,596.54,24.72,0000 0000 0000 0000 000000
2018-09-05 02:21:50,0.10,0.40,0.00,18.40,21.74,24.85,13.98,48.83,1001.48,2049.96,3282.21,3000.69,3443.52,599.96,596.38,24.77,0000 0000 0000 0000 000000
2018-09-05 02:26:51,0.11,0.40,0.00,18.44,21.77,24.83,13.95,48.70,1001.48,2049.88,3280.64,2998.50,3441.42,600.17,596.49,24.82,0000 0000 0000 0000 000000
2018-09-05 02:31:53,0.04,0.40,0.00,18.48,21.77,24.81,13.97,48.76,1001.47,2049.61,3279.70,2997.32,3439.94,600.13,596.37,24.87,0000 0000 0000 0000 000000
2018-09-05 02:36:54,0.03,0.41,0.00,18.51,21.79,24.85,13.93,48.59,1001.45,2049.25,3278.35,2995.91,3438.13,599.84,596.08,24.92,0000 0000 0000 0000 000000
2018-09-05 02:41:55,0.20,0.41,0.00,18.54,21.81,24.84,13.96,48.77,1001.46,2049.06,3276.41,2992.93,3435.07,599.80,595.93,24.97,0000 0000 0000 0000 000000
2018-09-05 02:46:56,0.11,0.42,0.00,18.58,21.83,24.82,13.99,48.71,1001.45,2049.05,3274.60,2990.17,3432.28,600.05,596.04,25.02,0000 0000 0000 0000 000000
2018-09-05 02:51:58,0.08,0.43,0.00,18.60,21.85,24.86,13.91,48.84,1001.42,2049.01,3273.10,2988.38,3430.25,599.85,595.93,25.07,0000 0000 0000 0000 000000
2018-09-05 02:56:59,0.06,0.43,0.00,18.63,21.87,24.80,13.96,48.69,1001.44,2049.00,3271.96,2987.08,3428.88,600.04,595.98,25.12,0000 0000 0000 0000 000000
2018-09-05 03:02:00,0.06,0.43,0.00,18.65,21.89,24.86,14.03,48.92,1001.46,2049.00,3271.05,2986.01,3427.49,600.15,596.01,25.17,0000 0000 0000 0000 000000
2018-09-05 03:07:02,0.05,0.44,0.00,18.69,21.92,24.90,13.95,48.66,1001.44,2048.99,3270.25,2985.11,3426.54,599.97,595.80,25.22,0000 0000 0000 0000 000000
2018-09-05 03:12:03,0.04,0.44,0.00,18.69,21.94,24.86,13.99,48.64,1001.41,2048.98,3269.34,2984.19,3425.63,599.85,595.61,25.27,0000 0000 0000 0000 000000
2018-09-05 03:17:04,0.00,0.44,0.00,18.73,21.96,24.94,13.93,48.60,1001.41,2048.95,3268.99,2983.96,3425.01,600.20,595.97,25.32,0000 0000 0000 0000 000000
2018-09-05 03:22:06,0.05,0.44,0.00,18.75,21.98,24.96,13.92,48.62,1001.24,2048.97,3268.28,2983.17,3424.26,599.96,595.53,25.37,0000 0000 0000 0000 000000
2018-09-05 03:27:07,0.01,0.44,0.00,18.78,22.00,24.92,13.85,48.68,1001.15,2048.82,3267.81,2982.70,3423.70,599.95,595.49,25.42,0000 0000 0000 0000 000000
2018-09-05 03:32:08,0.00,0.44,0.00,18.82,22.03,25.01,13.93,48.73,1001.26,2048.32,3266.90,2981.79,3422.66,599.97,595.60,25.47,0000 0000 0000 0000 000000
2018-09-05 03:37:09,0.06,0.45,0.00,18.85,22.05,25.07,13.98,48.74,1001.23,2048.12,3265.91,2980.62,3421.17,599.82,595.02,25.52,0000 0000 0000 0000 000000
2018-09-05 03:42:10,0.05,0.45,0.00,18.88,22.08,25.03,13.91,48.75,1001.07,2048.04,3265.06,2979.47,3420.05,600.19,595.39,25.57,0000 0000 0000 0000 000000
2018-09-05 03:47:12,0.03,0.45,0.00,18.92,22.10,25.02,13.88,48.57,1001.05,2048.02,3264.34,2978.99,3419.21,599.87,594.98,25.62,0000 0000 0000 0000 000000
2018-09-05 03:52:13,0.03,0.45,0.00,18.97,22.13,25.00,13.98,48.68,1001.00,2048.01,3264.00,2978.36,3418.82,600.04,594.98,25.67,0000 0000 0000 0000 000000
2018-09-05 03:57:14,0.03,0.45,0.00,19.02,22.15,25.01,13.96,48.79,1001.00,2048.00,3263.32,2977.84,3417.99,600.12,594.88,25.72,0000 0000 0000 0000 000000
2018-09-05 04:02:15,0.03,0.46,0.00,19.04,22.18,25.02,13.90,48.73,1001.00,2047.97,3263.00,2977.06,3417.14,600.14,594.98,25.77,0000 0000 0000 0000 000000
2018-09-05 04:07:16,0.01,0.46,0.00,19.07,22.21,25.00,13.94,48.67,1001.03,2047.92,3262.65,2976.92,3416.87,600.20,594.89,25.82,0000 0000 0000 0000 000000
2018-09-05 04:12:17,-0.01,0.46,0.00,19.10,22.24,25.02,13.92,48.58,1001.05,2047.42,3262.01,2976.11,3416.06,600.14,594.93,25.87,0000 0000 0000 0000 000000
2018-09-05 04:17:19,-0.00,0.46,0.00,19.13,22.27,25.05,13.88,48.66,1001.04,2047.22,3261.70,2976.00,3415.84,600.17,594.94,25.92,0000 0000 0000 0000 000000
2018-09-05 04:22:20,0.03,0.46,0.00,19.17,22.30,25.08,13.89,48.65,1001.00,2047.03,3261.03,2975.56,3415.01,600.12,594.71,25.98,0000 0000 0000 0000 000000
2018-09-05 04:27:21,0.03,0.46,0.00,19.19,22.33,25.09,13.92,48.57,1000.99,2047.01,3260.37,2974.85,3414.13,599.85,594.32,26.03,0000 0000 0000 0000 000000
2018-09-05 04:32:22,0.03,0.46,0.00,19.21,22.35,25.14,13.94,48.60,1000.91,2047.00,3259.96,2974.08,3413.63,600.09,594.57,26.08,0000 0000 0000 0000 000000
2018-09-05 04:37:23,0.05,0.46,0.00,19.24,22.38,25.19,13.99,48.73,1000.74,2047.00,3259.16,2973.43,3412.72,600.33,594.75,26.13,0000 0000 0000 0000 000000
2018-09-05 04:42:24,0.04,0.47,0.00,19.27,22.41,25.23,13.89,48.71,1000.55,2047.00,3258.23,2972.63,3411.94,599.67,593.78,26.18,0000 0000 0000 0000 000000
2018-09-05 04:47:26,0.02,0.47,0.00,19.28,22.44,25.24,13.97,48.63,1000.51,2047.00,3257.85,2972.03,3411.13,600.15,594.27,26.23,0000 0000 0000 0000 000000
2018-09-05 04:52:27,0.02,0.47,0.00,19.31,22.47,25.31,13.93,48.59,1000.52,2046.99,3257.10,2971.77,3410.72,600.10,594.10,26.28,0000 0000 0000 0000 000000
2018-09-05 04:57:29,0.03,0.47,0.00,19.34,22.49,25.36,13.84,48.55,1000.51,2046.99,3256.69,2971.01,3409.88,600.05,593.96,26.33,0000 0000 0000 0000 000000
2018-09-05 05:02:30,0.04,0.47,0.00,19.37,22.53,25.33,13.95,48.75,1000.50,2046.97,3256.01,2970.36,3409.09,600.00,593.86,26.38,0000 0000 0000 0000 000000
2018-09-05 05:07:32,0.01,0.47,0.00,19.39,22.55,25.41,13.83,48.71,1000.50,2046.94,3255.57,2970.01,3408.76,599.72,593.60,26.43,0000 0000 0000 0000 000000
2018-09-05 05:12:33,0.01,0.47,0.00,19.41,22.58,25.48,13.95,48.55,1000.41,2046.55,3254.72,2969.46,3407.78,599.93,593.56,26.48,0000 0000 0000 0000 000000
2018-09-05 05:17:34,-0.00,0.47,0.00,19.44,22.61,25.47,13.94,48.47,1000.23,2046.11,3254.03,2968.86,3407.03,600.32,593.87,26.53,0000 0000 0000 0000 000000
2018-09-05 05:22:35,0.03,0.48,0.00,19.48,22.64,25.50,13.99,48.55,1000.10,2046.02,3253.74,2968.09,3406.53,600.11,593.52,26.58,0000 0000 0000 0000 000000
2018-09-05 05:27:37,0.02,0.48,0.00,19.49,22.67,25.56,13.88,48.46,1000.03,2046.00,3253.04,2967.71,3405.96,599.87,593.19,26.63,0000 0000 0000 0000 000000
2018-09-05 05:32:38,0.02,0.48,0.00,19.52,22.69,25.58,13.86,48.49,1000.01,2046.00,3252.79,2967.10,3405.32,600.02,593.19,26.68,0000 0000 0000 0000 000000
2018-09-05 05:37:39,0.01,0.48,0.00,19.54,22.72,25.59,13.95,48.58,1000.01,2046.00,3252.05,2967.00,3404.99,599.87,593.16,26.73,0000 0000 0000 0000 000000
2018-09-05 05:42:41,0.04,0.48,0.00,19.56,22.74,25.60,13.83,48.45,1000.01,2045.99,3251.71,2966.58,3404.42,599.83,593.00,26.78,0000 0000 0000 0000 000000
2018-09-05 05:47:42,0.01,0.48,0.00,19.58,22.77,25.65,13.87,48.50,1000.01,2045.98,3251.04,2966.02,3404.00,599.93,592.91,26.83,0000 0000 0000 0000 000000
2018-09-05 05:52:43,0.02,0.48,0.00,19.61,22.79,25.65,13.84,48.39,1000.02,2045.93,3250.87,2965.96,3403.53,600.01,592.99,26.88,0000 0000 0000 0000 000000
2018-09-05 05:57:45,0.01,0.48,0.00,19.64,22.82,25.66,13.88,48.42,1000.02,2045.72,3250.12,2965.35,3403.01,600.12,593.15,26.93,0000 0000 0000 0000 000000
2018-09-05 06:02:46,-0.03,0.48,0.00,19.68,22.84,25.66,13.93,48.45,1000.01,2045.23,3249.97,2965.01,3402.69,600.29,593.13,26.98,0000 0000 0000 0000 000000
2018-09-05 06:07:47,0.01,0.48,0.00,19.69,22.87,25.73,13.91,48.55,1000.01,2045.04,3249.41,2964.97,3402.03,600.04,592.92,27.03,0000 0000 0000 0000 000000
2018-09-05 06:12:49,0.03,0.48,0.00,19.72,22.90,25.79,13.94,48.54,1000.01,2045.01,3249.00,2964.34,3401.74,600.23,593.14,27.08,0000 0000 0000 0000 000000
2018-09-05 06:17:50,0.02,0.49,0.00,19.73,22.92,25.84,13.87,48.40,1000.00,2045.00,3248.48,2964.00,3401.05,599.97,592.82,27.13,0000 0000 0000 0000 000000
2018-09-05 06:22:51,0.00,0.49,0.00,19.74,22.95,25.82,13.98,48.38,999.99,2045.00,3248.02,2963.89,3400.96,600.12,592.89,27.18,0000 0000 0000 0000 000000
2018-09-05 06:27:52,0.04,0.49,0.00,19.77,22.97,25.86,13.91,48.38,999.97,2044.99,3247.69,2963.10,3400.16,600.26,592.88,27.23,0000 0000 0000 0000 000000
2018-09-05 06:32:54,0.01,0.49,0.00,19.79,22.99,25.86,13.79,48.34,999.98,2044.98,3247.05,2962.99,3399.97,599.93,592.67,27.28,0000 0000 0000 0000 000000
2018-09-05 06:37:55,0.00,0.49,0.00,19.81,23.02,25.91,13.86,48.42,999.97,2044.96,3246.94,2962.88,3399.49,600.06,592.71,27.33,0000 0000 0000 0000 000000
2018-09-05 06:42:57,0.04,0.49,0.00,19.83,23.04,25.90,13.88,48.28,999.94,2044.96,3246.19,2962.14,3399.02,600.07,592.71,27.38,0000 0000 0000 0000 000000
2018-09-05 06:47:58,-0.00,0.49,0.00,19.84,23.07,25.97,13.83,48.34,999.92,2044.90,3245.99,2962.00,3398.71,600.03,592.56,27.43,0000 0000 0000 0000 000000
2018-09-05 06:53:00,-0.02,0.49,0.00,19.86,23.09,25.98,13.84,48.42,999.86,2044.27,3245.36,2961.66,3398.04,599.79,592.28,27.48,0000 0000 0000 0000 000000
2018-09-05 06:58:01,0.01,0.49,0.00,19.89,23.12,25.98,13.83,48.33,999.78,2044.09,3245.01,2961.07,3397.96,600.00,592.38,27.53,0000 0000 0000 0000 000000
2018-09-05 07:03:02,0.01,0.49,0.00,19.92,23.14,26.04,13.83,48.34,999.60,2044.05,3244.82,2961.00,3397.28,599.95,592.29,27.58,0000 0000 0000 0000 000000
2018-09-05 07:08:03,0.01,0.49,0.00,19.94,23.16,26.04,13.89,48.38,999.57,2044.01,3244.14,2960.93,3397.00,600.20,592.30,27.63,0000 0000 0000 0000 000000
2018-09-05 07:13:05,0.03,0.49,0.00,19.94,23.18,26.08,13.93,48.41,999.59,2044.00,3243.98,2960.26,3396.55,600.49,592.61,27.68,0000 0000 0000 0000 000000
2018-09-05 07:18:06,0.03,0.50,0.00,19.94,23.21,26.19,13.89,48.58,999.77,2043.99,3243.21,2959.82,3395.80,600.04,592.25,27.73,0000 0000 0000 0000 000000
2018-09-05 07:23:07,0.03,0.50,0.00,19.94,23.23,26.25,13.86,48.35,999.90,2043.98,3242.85,2959.07,3395.05,600.03,592.40,27.78,0000 0000 0000 0000 000000
2018-09-05 07:28:09,0.01,0.50,0.00,19.94,23.24,26.32,13.88,48.42,999.88,2043.97,3242.06,2959.00,3394.87,600.11,592.54,27.83,0000 0000 0000 0000 000000
2018-09-05 07:33:10,0.04,0.50,0.00,19.93,23.27,26.33,13.91,48.51,999.90,2043.97,3241.74,2958.51,3394.07,600.43,592.80,27.88,0000 0000 0000 0000 000000
2018-09-05 07:38:11,0.02,0.50,0.00,19.92,23.29,26.38,13.93,48.46,999.80,2043.97,3241.06,2958.03,3393.84,599.76,592.11,27.93,0000 0000 0000 0000 000000
2018-09-05 07:43:13,0.01,0.50,0.00,19.92,23.30,26.45,13.93,48.49,999.72,2043.88,3240.66,2957.97,3393.10,600.21,592.51,27.98,0000 0000 0000 0000 000000
2018-09-05 07:48:14,-0.01,0.50,0.00,19.92,23.32,26.48,13.82,48.48,999.69,2043.34,3239.99,2957.14,3392.52,599.94,592.21,28.03,0000 0000 0000 0000 000000
2018-09-05 07:53:16,0.01,0.50,0.00,19.92,23.33,26.51,13.85,48.47,999.63,2043.15,3239.34,2956.98,3392.00,600.04,592.29,28.08,0000 0000 0000 0000 000000
2018-09-05 07:58:17,0.03,0.50,0.00,19.92,23.34,26.48,13.87,48.48,999.58,2043.07,3238.96,2956.44,3391.57,600.00,592.21,28.13,0000 0000 0000 0000 000000
2018-09-05 08:03:18,0.02,0.50,0.00,19.92,23.36,26.51,13.93,48.38,999.58,2043.04,3238.19,2956.01,3391.02,600.06,592.09,28.18,0000 0000 0000 0000 000000
2018-09-05 08:08:19,0.02,0.50,0.00,19.94,23.37,26.53,13.88,48.47,999.58,2043.03,3237.77,2955.82,3390.74,599.92,592.09,28.23,0000 0000 0000 0000 000000
2018-09-05 08:13:21,0.03,0.51,0.00,19.94,23.37,26.51,13.85,48.52,999.57,2043.01,3237.03,2955.06,3390.03,599.89,591.98,28.28,0000 0000 0000 0000 000000
2018-09-05 08:18:22,0.02,0.51,0.00,19.96,23.39,26.54,13.94,48.42,999.56,2043.00,3236.44,2954.97,3389.51,600.08,592.18,28.33,0000 0000 0000 0000 000000
2018-09-05 08:23:23,0.03,0.51,0.00,19.98,23.40,26.52,13.82,48.47,999.57,2043.00,3235.86,2954.27,3388.99,600.28,592.31,28.38,0000 0000 0000 0000 000000
2018-09-05 08:28:24,0.03,0.51,0.00,19.99,23.42,26.53,13.92,48.52,999.54,2043.00,3235.06,2953.98,3388.22,600.01,592.04,28.43,0000 0000 0000 0000 000000
2018-09-05 08:33:26,0.04,0.51,0.00,20.02,23.42,26.54,13.90,48.60,999.53,2043.00,3234.49,2953.41,3387.73,600.03,592.01,28.48,0000 0000 0000 0000 000000
2018-09-05 08:38:27,0.02,0.51,0.00,20.03,23.44,26.52,13.94,48.54,999.53,2043.00,3233.74,2953.00,3387.02,600.16,592.12,28.53,0000 0000 0000 0000 000000
2018-09-05 08:43:28,0.03,0.52,0.00,20.04,23.45,26.56,13.87,48.41,999.53,2043.00,3233.02,2952.54,3386.33,600.11,591.81,28.58,0000 0000 0000 0000 000000
2018-09-05 08:48:30,0.03,0.52,0.00,20.06,23.47,26.55,13.89,48.47,999.53,2042.99,3232.24,2952.01,3385.74,599.80,591.72,28.63,0000 0000 0000 0000 000000
2018-09-05 08:53:31,0.06,0.52,0.00,20.07,23.47,26.57,13.86,48.36,999.53,2042.98,3231.15,2951.29,3384.76,600.01,591.89,28.68,0000 0000 0000 0000 000000
2018-09-05 08:58:32,0.07,0.52,0.00,20.07,23.49,26.60,13.87,48.35,999.53,2042.98,3229.77,2950.34,3383.64,600.17,592.10,28.73,0000 0000 0000 0000 000000
2018-09-05 09:03:34,0.03,0.53,0.00,20.10,23.50,26.57,13.86,48.30,999.53,2042.97,3228.87,2949.80,3382.81,599.79,591.57,28.78,0000 0000 0000 0000 000000
2018-09-05 09:08:35,0.04,0.53,0.00,20.12,23.52,26.51,13.89,48.43,999.53,2042.93,3228.01,2949.04,3381.96,599.98,591.75,28.83,0000 0000 0000 0000 000000
2018-09-05 09:13:37,0.05,0.53,0.00,20.13,23.53,26.52,13.86,48.35,999.53,2042.84,3227.02,2948.46,3381.02,600.00,591.74,28.88,0000 0000 0000 0000 000000
2018-09-05 09:18:38,0.04,0.53,0.00,20.14,23.55,26.52,13.94,48.27,999.54,2042.70,3225.85,2947.68,3379.99,600.41,592.20,28.93,0000 0000 0000 0000 000000
2018-09-05 09:23:39,0.03,0.53,0.00,20.17,23.56,26.56,13.88,48.48,999.55,2042.34,3224.55,2946.89,3378.90,600.24,591.86,28.98,0000 0000 0000 0000 000000
2018-09-05 09:28:41,0.05,0.54,0.00,20.17,23.57,26.61,13.83,48.41,999.58,2042.16,3223.30,2945.90,3377.59,599.92,591.63,29.03,0000 0000 0000 0000 000000
2018-09-05 09:33:42,0.07,0.54,0.00,20.17,23.59,26.68,13.80,48.31,999.80,2042.07,3221.67,2944.79,3376.21,600.00,591.86,29.08,0000 0000 0000 0000 000000
2018-09-05 09:38:43,0.09,0.54,0.00,20.18,23.61,26.70,13.86,48.33,999.90,2042.03,3219.91,2943.65,3374.61,599.98,591.80,29.13,0000 0000 0000 0000 000000
2018-09-05 09:43:44,0.08,0.55,0.00,20.19,23.62,26.68,13.89,48.31,999.86,2042.02,3218.07,2942.41,3372.92,599.83,591.65,29.18,0000 0000 0000 0000 000000
2018-09-05 09:48:46,0.07,0.55,0.00,20.21,23.63,26.70,13.90,48.37,999.68,2042.01,3216.34,2941.13,3371.32,600.18,591.76,29.23,0000 0000 0000 0000 000000
2018-09-05 09:53:47,0.08,0.56,0.00,20.22,23.65,26.69,13.97,48.35,999.63,2042.00,3214.65,2939.96,3369.76,600.22,591.79,29.28,0000 0000 0000 0000 000000
2018-09-05 09:58:48,0.08,0.56,0.00,20.24,23.66,26.67,13.92,48.31,999.56,2042.00,3212.96,2938.83,3368.28,600.13,591.64,29.33,0000 0000 0000 0000 000000
2018-09-05 10:03:50,0.08,0.57,0.00,20.26,23.67,26.63,13.89,48.40,999.54,2042.01,3211.32,2937.75,3366.74,600.08,591.57,29.38,0000 0000 0000 0000 000000
2018-09-05 10:08:51,0.08,0.57,0.00,20.27,23.70,26.62,13.88,48.23,999.55,2042.00,3209.59,2936.61,3365.30,600.15,591.63,29.43,0000 0000 0000 0000 000000
2018-09-05 10:13:52,0.09,0.57,0.00,20.27,23.71,26.70,13.91,48.46,999.55,2042.00,3207.73,2935.42,3363.68,599.94,591.50,29.48,0000 0000 0000 0000 000000
2018-09-05 10:18:53,0.08,0.58,0.00,20.28,23.72,26.76,13.77,48.41,999.54,2041.99,3205.83,2934.19,3362.11,600.19,591.64,29.53,0000 0000 0000 0000 000000
2018-09-05 10:23:54,0.08,0.58,0.00,20.30,23.74,26.76,13.82,48.38,999.53,2041.99,3204.11,2933.00,3360.60,600.03,591.50,29.58,0000 0000 0000 0000 000000
2018-09-05 10:28:55,0.09,0.59,0.00,20.32,23.75,26.78,13.89,48.33,999.53,2041.99,3202.15,2931.81,3358.92,600.21,591.56,29.63,0000 0000 0000 0000 000000
2018-09-05 10:33:57,0.09,0.59,0.00,20.32,23.77,26.80,13.80,48.46,999.53,2041.99,3200.22,2930.50,3357.18,599.80,591.17,29.68,0000 0000 0000 0000 000000
2018-09-05 10:38:58,0.08,0.60,0.00,20.32,23.77,26.84,13.87,48.37,999.53,2041.97,3198.31,2929.09,3355.38,600.20,591.54,29.73,0000 0000 0000 0000 000000
2018-09-05 10:43:59,0.11,0.60,0.00,20.32,23.80,26.86,13.84,48.49,999.53,2041.94,3196.27,2927.71,3353.55,600.17,591.55,29.78,0000 0000 0000 0000 000000
2018-09-05 10:49:00,0.09,0.61,0.00,20.32,23.80,26.87,13.94,48.45,999.53,2041.92,3194.21,2926.29,3351.71,600.09,591.50,29.83,0000 0000 0000 0000 000000
2018-09-05 10:54:01,0.06,0.61,0.00,20.34,23.82,26.90,13.87,48.52,999.53,2041.70,3192.37,2925.07,3350.09,599.90,591.18,29.88,0000 0000 0000 0000 000000
2018-09-05 10:59:03,0.07,0.62,0.00,20.34,23.82,26.94,13.96,48.61,999.53,2041.45,3190.57,2923.98,3348.64,600.14,591.61,29.93,0000 0000 0000 0000 000000
2018-09-05 11:04:04,0.08,0.62,0.00,20.32,23.84,26.92,13.89,48.58,999.53,2041.23,3188.52,2922.64,3346.91,599.97,591.35,29.98,0000 0000 0000 0000 000000
2018-09-05 11:09:05,0.08,0.62,0.00,20.32,23.85,26.97,13.84,48.60,999.49,2041.08,3186.39,2921.35,3345.19,599.83,591.16,30.03,0000 0000 0000 0000 000000
2018-09-05 11:14:06,0.09,0.63,0.00,20.32,23.85,26.99,13.94,48.50,999.39,2041.11,3184.36,2920.18,3343.57,600.31,591.61,30.08,0000 0000 0000 0000 000000
2018-09-05 11:19:07,0.09,0.63,0.00,20.32,23.87,27.00,13.87,48.53,999.14,2041.06,3182.26,2918.93,3341.83,600.05,591.21,30.13,0000 0000 0000 0000 000000
2018-09-05 11:24:09,0.10,0.64,0.00,20.33,23.87,26.99,13.91,48.63,999.07,2041.03,3180.19,2917.66,3340.18,600.12,591.19,30.18,0000 0000 0000 0000 000000
2018-09-05 11:29:10,0.10,0.64,0.00,20.34,23.87,26.99,13.89,48.64,999.05,2041.02,3178.02,2916.44,3338.50,600.25,591.30,30.23,0000 0000 0000 0000 000000
2018-09-05 11:34:12,0.11,0.65,0.00,20.33,23.89,27.03,13.82,48.73,999.04,2041.00,3175.70,2914.97,3336.60,599.76,590.75,30.29,0000 0000 0000 0000 000000
2018-09-05 11:39:13,0.11,0.65,0.00,20.32,23.90,27.05,13.92,48.64,999.04,2041.00,3173.33,2913.60,3334.75,599.98,591.16,30.34,0000 0000 0000 0000 000000
2018-09-05 11:44:14,0.10,0.66,0.00,20.32,23.90,27.07,13.88,48.66,999.00,2041.00,3171.00,2912.24,3332.78,599.70,590.82,30.39,0000 0000 0000 0000 000000
2018-09-05 11:49:15,0.10,0.66,0.00,20.31,23.90,27.07,13.90,48.58,998.94,2041.00,3168.64,2910.82,3331.02,600.09,591.17,30.44,0000 0000 0000 0000 000000
2018-09-05 11:54:16,0.11,0.67,0.00,20.29,23.90,27.08,13.87,48.60,998.84,2041.00,3166.18,2909.43,3329.11,599.96,590.97,30.49,0000 0000 0000 0000 000000
2018-09-05 11:59:18,0.12,0.68,0.00,20.27,23.91,27.09,13.89,48.66,998.63,2041.00,3163.62,2907.87,3327.22,600.09,591.00,30.54,0000 0000 0000 0000 000000
2018-09-05 12:04:19,0.12,0.68,0.00,20.26,23.92,27.08,13.84,48.67,998.58,2041.00,3160.97,2906.31,3325.18,599.91,590.72,30.59,0000 0000 0000 0000 000000
2018-09-05 12:09:20,0.14,0.69,0.00,20.24,23.92,27.12,13.91,48.61,998.57,2041.00,3158.14,2904.59,3322.94,599.99,590.95,30.64,0000 0000 0000 0000 000000
2018-09-05 12:14:21,0.12,0.70,0.00,20.22,23.92,27.09,13.88,48.61,998.59,2040.99,3155.43,2902.91,3320.70,599.91,590.97,30.69,0000 0000 0000 0000 000000
2018-09-05 12:19:22,0.11,0.70,0.00,20.24,23.92,27.10,13.88,48.58,998.61,2040.99,3152.98,2901.54,3318.79,600.04,591.08,30.74,0000 0000 0000 0000 000000
2018-09-05 12:24:24,0.14,0.71,0.00,20.23,23.92,27.10,13.80,48.67,998.78,2040.99,3150.17,2899.79,3316.51,599.75,590.89,30.79,0000 0000 0000 0000 000000
2018-09-05 12:29:25,0.11,0.71,0.00,20.23,23.92,27.08,13.87,48.54,998.99,2040.99,3147.43,2898.13,3314.36,599.94,591.18,30.84,0000 0000 0000 0000 000000
2018-09-05 12:34:26,0.12,0.72,0.00,20.25,23.91,27.07,13.96,48.61,999.03,2040.99,3144.74,2896.60,3312.34,600.15,591.42,30.89,0000 0000 0000 0000 000000
2018-09-05 12:39:28,0.14,0.73,0.00,20.27,23.91,27.04,13.85,48.57,999.04,2040.99,3141.92,2894.89,3310.07,599.94,591.16,30.94,0000 0000 0000 0000 000000
2018-09-05 12:44:29,0.18,0.74,0.00,20.29,23.92,27.01,13.95,48.51,999.05,2040.99,3138.42,2892.46,3307.02,600.36,591.48,30.99,0000 0000 0000 0000 000000
2018-09-05 12:49:30,0.13,0.74,0.00,20.32,23.92,27.00,13.91,48.52,999.07,2040.99,3135.58,2890.62,3304.65,600.14,591.12,31.04,0000 0000 0000 0000 000000
2018-09-05 12:54:32,0.14,0.75,0.00,20.33,23.92,26.97,13.86,48.51,999.17,2040.99,3132.84,2888.80,3302.35,600.10,591.17,31.09,0000 0000 0000 0000 000000